SL-14 R/B, 24731

Orbit data source: Space-Track

SL-14 R/B, 24731 is space debris in LEO originally from a launch on Fri, 14 Feb 1997 UTC launched from the Plesetsk Missile And Space Complex (PKMTR). Debris objects in space refer to the collection of defunct objects orbiting the Earth. Examples of debris include non-operational satellites, rocket bodies, and fragments generated from explosions, collisions, or faulty payload assembly.

Loading next visibility...
Identifier
24731, 1997-006G
Orbit
LEO
Country
Flag of CISCIS
Related business
Manufacturer
Yuzhnoe
Mission
Spacecraft
Bus & Motor
S5M, Unknown motor
Mass
1,600 kg wet, 1,600 kg dry
Launch date (UTC)
1997-02-14 (29 years ago)
Launch vehicle
Unknown
Launch site
Plesetsk Missile And Space Complex (PKMTR)
Object type
Payload
Rocket body
Debris
Shape & HBR
Cyl, 1.4 m
Radar Cross Section
7.351 m², Large (>1 m²)

Expand to show TLE details & history
Last TLE update: 17 hours ago

TLE from 17 hours ago
0 SL-14 R/B
1 24731U 97006G   25351.76638225  .00000002  00000-0 -53035-4 0  9997
2 24731  82.6004  93.6981 0042238  71.7790  41.4728 12.55270151321275
Epoch: 2025-12-17T18:23Z
TLE epoch observation values (Epoch: 2025-12-17T18:23:35.426Z)
Latitude
65.43576°
Longitude
-105.2541°
Altitude
1,429.104 km
Speed
7.164 km/s
True Right ascension
17h 09m 06s
True Declination
65° 19' 00"
Sunlit
Object was in daylight at epoch
Visualization orbit readout
Latitude
Unknown
Longitude
Unknown
Altitude
Unknown
Speed
Unknown
Apparent Right ascension
Unknown
Apparent Declination
Unknown
Sunlit
N/A
Visualization observer readout
Local Sidereal Time
10:05:41
Azimuth
Unknown
Elevation
Unknown
Doppler factor
Unknown
Orbital elements
Apogee altitude
1,472.88 km
Perigee altitude
1,406.837 km
Semi-major axis
7,817.995 km
Eccentricity
0.00422
Inclination
82.6004°
RAAN
93.6981°
Arg. of periapsis
71.779°
True anomaly
41.79462°
Mean anomaly
41.4728°
Eccentric anomaly
41.63358°
Mean motion
3.13979 °/min
Orbital period
114.66 mins
BSTAR
-0.000053035
Loading maneuver chart data...
Computing Atmospheric mass density...
Loading historical data...
Loading historical data...
Loading historical data...
Loading historical data...
Loading historical data...
Loading historical data...
Loading historical data...

Documentation

Showing up to 5 results
|